This is the latest recevied weather packets stored in our database for station/object K0SDS. If no packets are shown the sender has not sent any weather packets the latest 10 day(s).
| Time | Temp. | Humidity | Pressure | Rain* | Wind** | Luminosity | Snow |
|---|---|---|---|---|---|---|---|
| 1787428142 | 29.44° C | 55% | 1019.1 hPa | 0 mm | - | 611 W/m² | - |
| 1787427837 | 29.44° C | 59% | 1019.1 hPa | 0 mm | - | 605 W/m² | - |
| 1787427533 | 29.44° C | 56% | 1019.2 hPa | 0 mm | - | 610 W/m² | - |
| 1787427230 | 29.44° C | 62% | 1019.1 hPa | 0 mm | - | 632 W/m² | - |
| 1787426924 | 28.89° C | 64% | 1019.4 hPa | 0 mm | - | 636 W/m² | - |
| 1787426619 | 28.89° C | 61% | 1019.4 hPa | 0 mm | - | 671 W/m² | - |
| 1787426316 | 28.89° C | 61% | 1019.4 hPa | 0 mm | - | 637 W/m² | - |
| 1787426012 | 28.33° C | 65% | 1019.2 hPa | 0 mm | - | 615 W/m² | - |
| 1787425708 | 28.33° C | 64% | 1019.6 hPa | 0 mm | - | 592 W/m² | - |
| 1787425404 | 28.33° C | 63% | 1019.5 hPa | 0 mm | - | 628 W/m² | - |
| 1787425103 | 28.33° C | 64% | 1019.6 hPa | 0 mm | - | 658 W/m² | - |
| 1787424798 | 27.78° C | 70% | 1019.5 hPa | 0 mm | - | 635 W/m² | - |
| 1787424493 | 27.78° C | 70% | 1019.5 hPa | 0 mm | - | 631 W/m² | - |
| 1787424188 | 27.78° C | 71% | 1019.4 hPa | 0 mm | - | 654 W/m² | - |
| 1787423883 | 27.78° C | 69% | 1019.4 hPa | 0 mm | - | 648 W/m² | - |
| 1787423581 | 27.22° C | 71% | 1019.5 hPa | 0 mm | - | 652 W/m² | - |
| 1787423275 | 27.78° C | 73% | 1019.5 hPa | 0 mm | - | 655 W/m² | - |
| 1787422971 | 27.22° C | 74% | 1019.6 hPa | 0 mm | - | 649 W/m² | - |
| 1787422667 | 26.67° C | 76% | 1019.7 hPa | 0 mm | - | 677 W/m² | - |
| 1787422363 | 26.67° C | 78% | 1019.5 hPa | 0 mm | - | 685 W/m² | - |
| 1787422059 | 26.11° C | 82% | 1019.5 hPa | 0 mm | - | 670 W/m² | - |
| 1787421755 | 25.56° C | 82% | 1019.3 hPa | 0 mm | - | 640 W/m² | - |
| 1787421450 | 25.56° C | 81% | 1019.8 hPa | 0 mm | - | 637 W/m² | - |
| 1787421145 | 25° C | 79% | 1020 hPa | 0 mm | - | 664 W/m² | - |
| 1787420840 | 25° C | 84% | 1019.9 hPa | 0 mm | - | 658 W/m² | - |
* Rain latest hour (hover to see other rain measurements)
** Current wind speed in m/s (hover to see current wind gust speed)